Location: East Guldeford
(50.9500°N, 0.7500°E)
Time: 18:25:02
(UTC+00:00)

Cosmos 2082 Rocket - Pass Details

Date: 12 May 2021
Orbit: 834 x 852 km, 71.0° (Epoch: 15 June)

Event Time Altitude Azimuth Distance (km) Brightness Sun altitude
Rises 21:19:55 0° 329° (NNW) 3,394 7.3 -13.0°
Reaches altitude 10° 21:22:22 10° 329° (NNW) 2,456 6.1 -13.2°
Maximum altitude 21:28:00 81° 243° (WSW) 852 2.2 -13.7°
Enters shadow 21:32:00 20° 158° (SSE) 1,850 3.4 -14.1°
